FW8774 Weather Reports


time (UTC)temp
F
wind
direction
speed
knots
gust
knots
rain 1hr
in
rain 24hr
in
rain mn
in
humidity
%
barometer
mb
20260507012414 48 0 0.0 0.0 0.00 0.35 0.15 75 1014.5
20260507011908 49 0 0.0 0.0 0.00 0.36 0.15 75 1014.5
20260507011402 49 0 0.0 0.9 0.00 0.36 0.15 73 1014.5
20260507010856 49 0 0.0 0.9 0.00 0.36 0.15 70 1014.5
20260507010350 50 0 0.0 0.9 0.00 0.37 0.15 72 1014.5
20260507005844 50 0 0.0 0.9 0.00 0.38 0.15 73 1014.5
20260507005339 51 0 0.0 0.9 0.00 0.38 0.15 70 1014.5
20260507004832 51 0 0.0 1.7 0.00 0.39 0.15 68 1014.4
20260507004556 52 0 0.0 1.7 0.00 0.39 0.15 67 1014.5
20260507004050 52 0 0.0 1.7 0.00 0.40 0.15 64 1014.3
20260507003314 52 0 0.9 5.2 0.00 0.41 0.15 61 1014.3
20260507002809 52 0 1.7 5.2 0.00 0.41 0.15 60 1014.3
20260507002533 52 0 1.7 5.2 0.00 0.42 0.15 60 1014.3
20260507001756 53 266 2.6 4.3 0.00 0.42 0.15 59 1014.4
20260507001250 53 0 2.6 5.2 0.00 0.43 0.15 59 1014.3
20260507000744 53 268 2.6 6.1 0.00 0.43 0.15 58 1014.3
20260507000238 54 269 3.5 6.1 0.00 0.44 0.15 58 1014.3
20260506235732 54 243 2.6 6.1 0.00 0.44 0.15 57 1014.3
20260506235226 55 285 1.7 4.3 0.00 0.44 0.15 57 1014.2
20260506234721 55 285 2.6 4.3 0.00 0.45 0.15 56 1014.3
20260506234214 55 302 1.7 4.3 0.00 0.45 0.15 55 1014.2
20260506233708 55 310 1.7 3.5 0.00 0.45 0.15 55 1014.3
20260506233206 55 310 1.7 3.5 0.00 0.45 0.15 55 1014.3
20260506232707 54 310 1.7 3.5 0.00 0.45 0.15 56 1014.3
20260506232205 53 310 1.7 3.5 0.00 0.46 0.15 57 1014.4
20260506231707 53 315 0.9 2.6 0.00 0.46 0.15 58 1014.4
20260506231206 53 315 0.9 3.5 0.00 0.46 0.15 59 1014.5
20260506230705 53 316 1.7 3.5 0.00 0.46 0.15 58 1014.5
20260506230205 53 316 1.7 3.5 0.00 0.47 0.15 59 1014.5
20260506225706 53 316 1.7 3.5 0.00 0.47 0.15 57 1014.6
20260506225206 53 322 1.7 3.5 0.00 0.48 0.15 60 1014.5
20260506224706 53 322 1.7 3.5 0.00 0.49 0.15 58 1014.5
20260506224206 53 321 1.7 5.2 0.00 0.49 0.15 57 1014.6
20260506223705 53 320 2.6 5.2 0.00 0.49 0.15 58 1014.5
20260506223208 53 0 2.6 7.0 0.00 0.49 0.15 57 1014.6
20260506222704 53 0 3.5 7.0 0.00 0.49 0.15 56 1014.6
20260506222203 53 327 3.5 7.0 0.00 0.50 0.15 58 1014.5
20260506221704 53 333 3.5 7.0 0.00 0.50 0.15 57 1014.5
20260506221159 53 321 2.6 6.1 0.00 0.50 0.15 57 1014.5
20260506220659 53 334 2.6 8.7 0.00 0.50 0.15 59 1014.4
20260506220157 53 324 3.5 8.7 0.00 0.51 0.15 58 1014.4
20260506215657 53 303 4.3 8.7 0.00 0.52 0.15 57 1014.5
20260506215158 53 300 4.3 8.7 0.00 0.52 0.15 56 1014.4
20260506214929 53 0 3.5 8.7 0.00 0.54 0.15 56 1014.4
20260506214158 53 316 4.3 9.6 0.00 0.54 0.15 57 1014.4
20260506213659 54 0 4.3 9.6 0.00 0.54 0.15 56 1014.3
20260506213158 54 0 4.3 7.8 0.00 0.54 0.15 55 1014.4
20260506212658 54 0 4.3 10.4 0.00 0.54 0.15 54 1014.3
20260506212158 54 323 4.3 10.4 0.00 0.54 0.15 55 1014.2
20260506211929 54 280 6.1 10.4 0.00 0.54 0.15 57 1014.0
20260506211153 54 261 7.0 10.4 0.00 0.54 0.15 58 1013.8
20260506210654 54 256 6.1 10.4 0.00 0.54 0.15 58 1013.9
20260506210153 54 265 6.1 10.4 0.00 0.55 0.15 58 1013.8
20260506205653 54 258 6.1 10.4 0.00 0.55 0.15 59 1013.9
20260506205154 54 269 6.1 11.3 0.00 0.56 0.15 59 1013.9
20260506204654 54 236 4.3 11.3 0.00 0.57 0.15 60 1013.9
20260506204153 54 240 5.2 9.6 0.00 0.57 0.15 60 1013.8
20260506203654 54 266 5.2 9.6 0.00 0.58 0.15 58 1013.9
20260506203154 54 251 5.2 9.6 0.00 0.59 0.15 58 1013.8
20260506202921 54 318 4.3 8.7 0.00 0.60 0.15 58 1014.0
20260506202421 54 245 3.5 8.7 0.00 0.61 0.15 58 1014.0
20260506201649 54 0 4.3 8.7 0.00 0.63 0.15 59 1014.0
20260506201149 54 0 4.3 8.7 0.00 0.64 0.15 58 1014.0
20260506200650 53 0 4.3 10.4 0.00 0.65 0.15 58 1014.0
20260506200150 53 0 5.2 10.4 0.00 0.66 0.15 58 1014.0
20260506195650 53 0 6.1 10.4 0.00 0.67 0.15 58 1014.2
20260506195150 53 240 5.2 10.4 0.00 0.68 0.15 57 1014.3
20260506194920 53 255 4.3 9.6 0.00 0.69 0.15 58 1014.2
20260506194146 54 272 3.5 9.6 0.00 0.70 0.15 59 1014.0
20260506193645 53 236 4.3 9.6 0.00 0.70 0.15 58 1014.0
20260506193144 53 250 5.2 9.6 0.00 0.71 0.15 57 1014.0
20260506192644 53 252 5.2 9.6 0.00 0.71 0.15 57 1014.0
20260506192148 53 315 5.2 9.6 0.00 0.72 0.15 58 1013.9
20260506192142 53 248 4.3 9.6 0.00 0.71 0.15 58 1014.0
20260506191410 53 260 4.3 9.6 0.00 0.73 0.15 58 1013.9
20260506190909 53 302 4.3 8.7 0.00 0.74 0.15 57 1014.2
20260506190136 53 285 3.5 9.6 0.00 0.74 0.15 56 1014.2
20260506185636 53 270 3.5 9.6 0.00 0.75 0.15 56 1014.0
20260506185138 53 261 5.2 9.6 0.00 0.77 0.15 54 1014.2
20260506185133 53 324 5.2 9.6 0.00 0.76 0.15 55 1014.0
20260506184133 53 308 5.2 12.2 0.00 0.77 0.15 57 1014.2
20260506183633 53 317 4.3 12.2 0.00 0.78 0.15 56 1014.4
20260506183133 53 325 5.2 12.2 0.00 0.79 0.15 56 1014.3
20260506182902 54 273 6.1 12.2 0.00 0.80 0.15 55 1014.2
20260506182130 54 277 5.2 11.3 0.00 0.80 0.15 57 1014.2
20260506181625 54 282 4.3 9.6 0.00 0.81 0.15 56 1014.0
20260506181119 54 294 4.3 9.6 0.00 0.82 0.15 56 1013.8
20260506180613 54 316 5.2 9.6 0.00 0.82 0.15 56 1013.8
20260506180106 53 338 5.2 9.6 0.00 0.82 0.15 55 1014.0
20260506175601 54 331 5.2 9.6 0.00 0.82 0.15 56 1014.0
20260506175055 54 301 5.2 9.6 0.00 0.82 0.15 55 1014.0
20260506174820 54 329 4.3 9.6 0.00 0.82 0.15 56 1014.0
20260506174043 54 282 5.2 10.4 0.00 0.82 0.15 55 1014.0
20260506173537 54 311 4.3 10.4 0.00 0.82 0.15 55 1014.0
20260506173031 54 331 4.3 10.4 0.00 0.83 0.15 54 1014.0
20260506172755 54 333 5.2 13.0 0.00 0.83 0.15 56 1013.9
20260506172018 55 327 5.2 13.0 0.00 0.83 0.15 57 1014.0
20260506171513 55 312 4.3 9.6 0.00 0.84 0.15 59 1013.9
20260506171006 54 289 4.3 9.6 0.00 0.84 0.15 59 1013.9
20260506170500 54 286 4.3 9.6 0.00 0.85 0.15 58 1014.0
20260506165955 53 329 4.3 9.6 0.00 0.85 0.15 57 1014.0
20260506165449 53 337 5.2 9.6 0.00 0.85 0.15 55 1014.2
20260506164943 54 271 5.2 11.3 0.00 0.86 0.15 57 1014.3
20260506164437 54 299 4.3 11.3 0.00 0.86 0.15 58 1014.3
20260506163930 54 53 6.1 11.3 0.00 0.86 0.15 56 1014.3
20260506163424 54 318 5.2 11.3 0.00 0.86 0.15 57 1014.3
20260506162919 54 32 4.3 10.4 0.00 0.86 0.15 59 1014.0
20260506162413 53 336 5.2 10.4 0.00 0.87 0.15 57 1014.0
20260506161907 53 311 4.3 9.6 0.00 0.87 0.15 58 1013.8
20260506161401 54 332 4.3 9.6 0.00 0.87 0.15 59 1014.0
20260506161132 53 312 3.5 8.7 0.00 0.87 0.15 63 1014.4
20260506160621 53 327 3.5 8.7 0.00 0.88 0.15 60 1014.4
20260506155842 53 272 5.2 10.4 0.00 0.89 0.15 58 1014.3
20260506155337 53 330 5.2 10.4 0.00 0.89 0.15 59 1014.2
20260506154830 53 327 4.3 10.4 0.00 0.89 0.15 59 1014.2
20260506154600 52 300 4.3 10.4 0.00 0.89 0.15 61 1014.2
20260506153829 52 298 4.3 10.4 0.00 0.89 0.15 60 1013.9
20260506153329 53 350 4.3 9.6 0.00 0.89 0.15 61 1013.9
20260506152829 53 336 3.5 9.6 0.00 0.89 0.15 62 1013.9
20260506152328 53 324 3.5 9.6 0.00 0.89 0.15 65 1013.9
20260506151829 52 324 5.2 9.6 0.00 0.89 0.15 65 1013.9
20260506151329 52 51 5.2 9.6 0.00 0.89 0.15 68 1013.7
20260506150828 52 315 5.2 12.2 0.00 0.89 0.15 70 1013.5
20260506150327 51 280 5.2 12.2 0.00 0.89 0.15 66 1013.6
20260506145827 51 321 5.2 12.2 0.00 0.89 0.15 70 1013.4
20260506145327 51 318 5.2 12.2 0.00 0.89 0.15 68 1013.5
20260506144827 51 0 3.5 12.2 0.00 0.89 0.15 69 1013.5
20260506144327 51 333 3.5 12.2 0.00 0.89 0.15 69 1013.4
20260506143828 51 329 4.3 10.4 0.00 0.89 0.15 72 1013.3
20260506143327 51 313 5.2 10.4 0.00 0.89 0.15 72 1013.4
20260506142827 51 295 4.3 10.4 0.00 0.89 0.15 71 1013.4
20260506142326 50 323 4.3 9.6 0.00 0.89 0.15 73 1013.6
20260506141821 50 333 3.5 9.6 0.00 0.89 0.15 74 1013.4
20260506141315 49 330 4.3 9.6 0.00 0.89 0.15 74 1013.3
20260506140815 49 329 5.2 9.6 0.00 0.89 0.15 74 1013.2
20260506140546 50 307 3.5 9.6 0.00 0.89 0.15 78 1013.1
20260506140422 49 0 3.5 9.6 0.00 0.89 0.15 80 1013.0
20260506135315 49 0 4.3 9.6 0.00 0.89 0.15 79 1013.0
20260506134815 49 324 5.2 9.6 0.00 0.89 0.15 83 1013.0
20260506134314 48 5 6.1 9.6 0.00 0.89 0.15 82 1013.0
20260506133815 48 328 4.3 7.8 0.00 0.89 0.15 84 1013.1
20260506133315 48 318 3.5 7.8 0.00 0.89 0.15 86 1013.0
20260506132814 47 327 3.5 7.8 0.00 0.89 0.15 88 1013.0
20260506132314 47 0 2.6 7.8 0.00 0.89 0.15 89 1013.0
20260506132046 47 0 2.6 7.0 0.00 0.89 0.15 90 1013.0
20260506131315 46 0 3.5 7.0 0.00 0.89 0.15 90 1013.1
20260506130813 46 0 3.5 5.2 0.00 0.89 0.15 91 1013.0
20260506130312 46 0 3.5 5.2 0.00 0.89 0.15 91 1012.9
20260506130044 46 0 3.5 7.0 0.00 0.89 0.15 91 1012.8
20260506125543 45 0 3.5 7.0 0.00 0.89 0.15 92 1012.8
20260506124813 45 0 3.5 7.0 0.00 0.89 0.15 92 1012.7
20260506124312 45 0 3.5 7.0 0.00 0.89 0.15 93 1012.7
20260506124043 45 0 3.5 7.0 0.00 0.89 0.15 93 1012.8
20260506123312 44 0 3.5 7.0 0.00 0.89 0.15 93 1012.7
20260506122813 44 0 3.5 7.0 0.00 0.89 0.15 94 1012.5
20260506122308 44 0 1.7 4.3 0.00 0.89 0.15 94 1012.4
20260506121808 44 0 1.7 4.3 0.00 0.89 0.15 95 1012.3
20260506121308 44 0 2.6 6.1 0.00 0.89 0.15 95 1012.2
20260506121039 44 0 2.6 6.1 0.00 0.89 0.15 95 1012.2
20260506120309 44 0 2.6 6.1 0.00 0.89 0.15 95 1012.4
20260506115808 44 259 2.6 6.1 0.00 0.89 0.15 95 1012.3
20260506115307 44 272 2.6 6.1 0.00 0.89 0.15 95 1012.2
20260506114807 43 269 2.6 6.1 0.00 0.89 0.15 95 1012.0
20260506114307 43 280 2.6 5.2 0.00 0.89 0.15 95 1011.9
20260506113807 43 295 2.6 4.3 0.00 0.89 0.15 95 1011.7
20260506113306 43 300 2.6 3.5 0.00 0.89 0.15 95 1011.6
20260506112806 43 302 1.7 3.5 0.00 0.89 0.15 95 1011.6
20260506112306 43 315 1.7 3.5 0.00 0.89 0.15 96 1011.3
20260506111807 43 315 1.7 2.6 0.00 0.89 0.15 95 1011.3
20260506111304 43 315 1.7 2.6 0.00 0.89 0.15 95 1011.4
20260506110802 43 315 1.7 2.6 0.00 0.89 0.15 95 1011.2
20260506110303 43 315 1.7 2.6 0.00 0.89 0.15 95 1011.3
20260506105803 43 315 1.7 2.6 0.00 0.89 0.15 96 1011.2
20260506105300 43 315 0.9 1.7 0.00 0.89 0.15 95 1011.2
20260506104759 43 315 0.9 2.6 0.00 0.89 0.15 95 1011.2
20260506104526 43 315 1.7 2.6 0.00 0.89 0.15 95 1011.1
20260506103754 43 315 1.7 4.3 0.00 0.89 0.15 95 1011.3
20260506103255 43 315 0.9 4.3 0.00 0.89 0.15 95 1011.3
20260506102756 43 315 1.7 4.3 0.00 0.89 0.15 95 1011.1
20260506102250 43 315 2.6 4.3 0.00 0.89 0.15 95 1011.0
20260506101744 44 313 1.7 4.3 0.00 0.89 0.15 96 1010.9
20260506101243 44 309 1.7 3.5 0.00 0.89 0.15 96 1010.8
20260506100732 44 309 0.9 3.5 0.00 0.89 0.15 96 1010.9
20260506100225 44 311 1.7 3.5 0.00 0.89 0.15 96 1010.7
20260506095718 44 311 1.7 3.5 0.00 0.89 0.15 95 1011.0
20260506095443 44 322 1.7 3.5 0.00 0.89 0.15 95 1010.4
20260506094706 44 323 1.7 3.5 0.00 0.89 0.15 95 1010.3
20260506094158 44 339 1.7 3.5 0.00 0.89 0.15 95 1010.0
20260506093652 44 339 1.7 3.5 0.00 0.89 0.15 95 1010.4
20260506093416 44 339 1.7 3.5 0.00 0.89 0.15 95 1010.3
20260506092638 44 340 0.9 2.6 0.00 0.89 0.15 95 1010.4
20260506092402 44 340 0.0 2.6 0.00 0.89 0.15 95 1010.4
20260506091857 44 340 0.0 3.5 0.01 0.89 0.15 95 1010.2
20260506091120 44 339 0.0 3.5 0.01 0.89 0.15 95 1010.3
20260506090613 44 339 0.9 5.2 0.01 0.89 0.15 95 1010.4
20260506090107 44 340 0.9 5.2 0.01 0.89 0.15 95 1010.6
20260506085601 44 336 2.6 5.2 0.01 0.89 0.15 95 1010.9
20260506085055 44 339 2.6 5.2 0.01 0.89 0.15 95 1010.9
20260506084549 44 330 1.7 4.3 0.01 0.89 0.15 95 1010.7
20260506084044 44 56 0.0 0.9 0.01 0.89 0.15 95 1010.2
20260506083537 44 57 0.0 1.7 0.01 0.89 0.15 95 1009.9
20260506083031 44 56 0.0 1.7 0.01 0.89 0.15 95 1009.9
20260506082525 44 55 0.0 0.9 0.01 0.89 0.15 95 1010.2
20260506082020 44 55 0.0 0.9 0.01 0.89 0.15 95 1010.4
20260506081513 44 55 0.0 0.9 0.01 0.89 0.14 95 1010.3
20260506081007 44 55 0.0 1.7 0.01 0.89 0.14 95 1010.4
20260506080733 43 55 0.0 1.7 0.01 0.89 0.14 95 1010.5
20260506073426 43 0 0.9 4.3 0.04 0.89 0.14 95 1010.3
20260506072919 43 0 1.7 4.3 0.04 0.89 0.14 95 1009.9
20260506072509 44 0 1.7 4.3 0.04 0.89 0.14 95 1009.8
20260506072413 44 0 1.7 4.3 0.04 0.89 0.14 94 1009.7
20260506070856 44 0 0.9 2.6 0.04 0.88 0.13 95 1009.9
20260506070350 44 0 0.9 2.6 0.04 0.88 0.13 95 1010.0
20260506062322 44 0 0.9 2.6 0.04 0.85 0.10 95 1010.8
20260506061820 44 0 0.0 2.6 0.04 0.84 0.10 95 1010.9
20260506061320 44 0 0.0 3.5 0.04 0.84 0.09 95 1010.6
20260506060820 44 0 0.0 3.5 0.05 0.84 0.09 95 1010.4
20260506060318 44 0 0.9 4.3 0.06 0.84 0.09 95 1010.4
20260506051303 46 0 0.9 3.5 0.04 0.80 0.05 96 1009.9
20260506051034 45 0 0.9 4.3 0.03 0.79 0.04 96 1010.0
20260506050304 45 0 1.7 4.3 0.02 0.78 0.03 95 1010.5
20260506044804 45 0 1.7 3.5 0.03 0.78 0.03 95 1010.7
20260506044535 45 0 0.0 3.5 0.03 0.77 0.02 95 1010.6
20260506043804 45 0 0.0 1.7 0.03 0.77 0.02 95 1010.6
20260506043308 45 0 0.0 0.9 0.04 0.77 0.02 95 1010.4
20260506043304 45 0 0.9 1.7 0.03 0.77 0.02 95 1010.5
20260506042259 45 0 0.0 2.6 0.04 0.77 0.02 95 1010.2
20260506041759 45 0 0.9 2.6 0.03 0.76 0.01 95 1010.2
20260506041259 45 0 1.7 3.5 0.03 0.76 0.01 95 1010.2
20260506040759 45 0 1.7 3.5 0.04 0.76 0.01 95 1009.9
20260506040259 45 0 1.7 3.5 0.04 0.76 0.01 95 1010.2
20260506035759 46 45 1.7 3.5 0.03 0.75 0.75 95 1010.3
20260506035259 46 45 2.6 3.5 0.04 0.75 0.75 96 1010.2
20260506034800 46 43 1.7 4.3 0.04 0.75 0.75 95 1010.3
20260506034259 46 41 0.9 4.3 0.05 0.74 0.74 95 1010.4
20260506033755 46 26 0.9 2.6 0.06 0.74 0.74 96 1010.5
20260506033255 46 26 0.9 2.6 0.05 0.73 0.73 95 1010.8
20260506033024 46 26 0.9 2.6 0.07 0.73 0.73 96 1010.6
20260506032253 46 26 1.7 2.6 0.08 0.73 0.73 95 1010.6
20260506031753 46 26 1.7 2.6 0.09 0.73 0.73 95 1010.6
20260506031255 46 57 0.9 2.6 0.09 0.73 0.73 96 1010.5
20260506030753 46 63 0.0 0.0 0.09 0.72 0.72 96 1010.4
20260506030253 46 63 0.0 1.7 0.10 0.72 0.72 95 1010.5
20260506025753 46 63 0.0 1.7 0.10 0.72 0.72 96 1010.3
20260506025524 46 63 0.0 5.2 0.10 0.71 0.71 95 1010.5
20260506024749 46 63 1.7 5.2 0.10 0.70 0.70 95 1010.4
20260506024517 46 63 1.7 5.2 0.10 0.69 0.70 95 1010.4
20260506023746 46 68 1.7 8.7 0.11 0.68 0.68 96 1010.5
20260506023240 46 57 2.6 8.7 0.11 0.67 0.67 96 1010.4
20260506022733 47 63 3.5 8.7 0.11 0.66 0.66 96 1010.4
20260506022227 47 0 3.5 8.7 0.10 0.65 0.65 96 1010.4
20260506021722 47 0 1.7 4.3 0.10 0.64 0.64 96 1010.6
20260506021216 47 0 0.9 2.6 0.10 0.64 0.64 96 1010.5
20260506020710 47 0 0.0 2.6 0.09 0.63 0.63 96 1010.6
20260506020205 47 0 0.9 2.6 0.09 0.62 0.62 96 1010.5
20260506015657 47 329 0.9 2.6 0.09 0.61 0.62 96 1010.5
20260506015152 47 330 1.7 3.5 0.10 0.61 0.61 96 1010.2
20260506014918 47 330 0.9 3.5 0.09 0.60 0.60 96 1010.2
20260506014139 47 330 1.7 3.5 0.08 0.58 0.58 96 1010.2
20260506013634 47 329 1.7 3.5 0.07 0.57 0.57 96 1010.0
20260506013127 47 327 1.7 3.5 0.07 0.56 0.56 96 1010.0